Simultaneous Nadir Overpasses (SNOs) Predictions

Prediction of SNOs between GOES-15 and LANDSAT-8 Satellite Orbit:

Table of predicted SNOs for the next 14.0 days since TLE Epoch: 12/12/2020
Index Date Time (GOES-15) GOES-15 Lat,Lon LANDSAT-8 Lat,Lon Distance(km) Time Diff (sec)
1 12/13/2020 06:46:09 -0.19,-128.18 -0.31,-128.66 54.87 80
2 12/15/2020 06:36:38 -0.19,-128.21 0.35,-125.71 284.30 80
3 12/15/2020 18:55:14 0.17,-128.20 0.72,-130.87 303.33 80
4 12/17/2020 18:45:42 0.18,-128.22 0.11,-127.91 35.44 80
5 12/19/2020 18:33:30 0.19,-128.24 -0.49,-124.95 374.25 80
6 12/20/2020 06:52:15 -0.17,-128.26 -0.56,-130.15 214.79 80
7 12/22/2020 06:42:43 -0.17,-128.28 0.05,-127.19 123.87 80
8 12/22/2020 19:01:19 0.15,-128.28 1.01,-132.35 463.37 80
9 12/24/2020 06:30:31 -0.18,-128.30 0.67,-124.23 462.28 80
10 12/24/2020 18:49:07 0.16,-128.29 0.40,-129.39 125.20 80
